Location: Cahas Mountain Overlook
(37.0833°N, 80.1000°W)
Time: 00:51:00
(UTC-05:00)

A-11 Canister half - Pass Details

Date: 03 December 2023
Orbit: 1512 x 1687 km, 47.2° (Epoch: 01 March)

Event Time Altitude Azimuth Distance (km) Brightness Sun altitude
Exits shadow 01:51:43 13° 57° (ENE) 3,641 11.2 -63.4°
Drops below altitude 10° 01:52:36 10° 58° (ENE) 3,908 11.4 -63.3°
Sets 01:55:50 0° 60° (ENE) 4,914 12.0 -62.7°
